STARLINK-1185, 45087

Orbit data source: Space-Track

STARLINK-1185, 45087 is a payload satellite owned by SpaceX/Seattle (US) in LEO that was launched on Wed, 29 Jan 2020 UTC via an FALCON 9 launch vehicle from the Air Force Eastern Test Range (AFETR). Payload-class satellites include a variety of spacecraft equipped with specific instruments for various scientific and technological missions. These include communications satellites like Starlink; space stations such as the ISS; scientific satellites like the Hubble; Earth observation satellites from companies like Planet Labs, Umbra, and HawkEye 360; GPS; miniature CubeSats for education and research; and military/defense satellites.

Loading next visibility...
Identifier
45087, 2020-006AV
Orbit
LEO
Country
Flag of USUS
Related business
Manufacturer
SpaceX/Seattle
Mission
Operational Commercial Communications
Bus & Motor
STARLINK, Unknown motor
Mass
260 kg wet, ~248 kg dry
Launch date (UTC)
2020-01-29 (6 years ago)
Launch vehicle
FALCON 9
Launch site
Air Force Eastern Test Range (AFETR)
Object type
Payload
Rocket body
Debris
Shape & HBR
Box + 1 Pan, 10.1 m
Radar Cross Section
13.562 m², Large (>1 m²)

Expand to show TLE details & history
Last TLE update: 1 day ago

TLE from 1 day ago
0 STARLINK-1185
1 45087U 20006AV  25286.05543918 -.00002415  00000-0 -14330-3 0  9998
2 45087  53.0533 189.3733 0001447  78.5431 281.5721 15.06390507314777
Epoch: 2025-10-13T01:19Z
TLE epoch observation values (Epoch: 2025-10-13T01:19:49.945Z)
Latitude
0.00004°
Longitude
147.55151°
Altitude
547.919 km
Speed
7.589 km/s
True Right ascension
12h 37m 29s
True Declination
0° 00' 00"
Sunlit
Object was in daylight at epoch
Visualization orbit readout
Latitude
Unknown
Longitude
Unknown
Altitude
Unknown
Speed
Unknown
Apparent Right ascension
Unknown
Apparent Declination
Unknown
Sunlit
N/A
Visualization observer readout
Local Sidereal Time
22:27:50
Azimuth
Unknown
Elevation
Unknown
Doppler factor
Unknown
Orbital elements
Apogee altitude
548.514 km
Perigee altitude
546.509 km
Semi-major axis
6,925.649 km
Eccentricity
0.00014
Inclination
53.0533°
RAAN
189.3733°
Arg. of periapsis
78.5431°
True anomaly
281.55586°
Mean anomaly
281.5721°
Eccentric anomaly
281.56398°
Mean motion
3.76576 °/min
Orbital period
95.6 mins
BSTAR
-0.0001433
Loading maneuver chart data...
Computing Atmospheric mass density...
Loading historical data...
Loading historical data...
Loading historical data...
Loading historical data...
Loading historical data...
Loading historical data...
Loading historical data...

Documentation

Showing up to 5 results
|